When you browse on this site, cookies collect data to enhance your experience and personalize the content and advertising you see.
Visit our Privacy Policy to learn more. By continuing to use the site, you agree to this use of cookies and data.
  • In United Kingdom
  • List of Countries
  • For 7 days
  • Water Temperature
  • Satellite Maps
  • Weather Map
  • Weather Widgets
  • user-avatar
    Login

    Hourly Weather Jutiapa

    Today, 17 February, Sunday

    Time Temperature Precipitation Wind Pressure Humidity
    00:00 +20°C° 0 mm 1 mps 671 mmHg 97%
    01:00 +18°C° 0 mm 0 mps 671 mmHg 97%
    02:00 +17°C° 0 mm 0 mps 671 mmHg 97%
    03:00 +17°C° 0 mm 0 mps 671 mmHg 97%
    04:00 +17°C° 0 mm 0 mps 671 mmHg 96%
    05:00 +17°C° 0 mm 0 mps 671 mmHg 96%
    06:00 +18°C° 0 mm 1 mps 671 mmHg 96%
    07:00 +21°C° 0 mm 1 mps 672 mmHg 83%
    08:00 +24°C° 0 mm 1 mps 673 mmHg 69%
    09:00 +27°C° 0 mm 1 mps 674 mmHg 55%
    10:00 +28°C° 0 mm 2 mps 675 mmHg 47%
    11:00 +30°C° 0 mm 2 mps 675 mmHg 39%
    12:00 +33°C° 0 mm 3 mps 675 mmHg 32%
    13:00 +33°C° 0 mm 3 mps 674 mmHg 33%
    14:00 +33°C° 0 mm 3 mps 673 mmHg 34%
    15:00 +32°C° 0 mm 4 mps 673 mmHg 35%
    16:00 +29°C° 0 mm 3 mps 672 mmHg 44%
    17:00 +27°C° 0 mm 3 mps 672 mmHg 53%
    18:00 +25°C° 0 mm 2 mps 672 mmHg 63%
    19:00 +23°C° 0 mm 2 mps 672 mmHg 73%
    20:00 +21°C° 0 mm 1 mps 672 mmHg 83%
    21:00 +20°C° 0 mm 1 mps 672 mmHg 94%
    22:00 +20°C° 0 mm 1 mps 672 mmHg 94%
    23:00 +19°C° 0 mm 1 mps 672 mmHg 94%

    Tomorrow, 18 February, Monday

    Time Temperature Precipitation Wind Pressure Humidity
    00:00 +19°C° 0 mm 1 mps 672 mmHg 95%
    01:00 +19°C° 0 mm 1 mps 672 mmHg 94%
    02:00 +19°C° 0 mm 1 mps 672 mmHg 93%
    03:00 +18°C° 0 mm 1 mps 671 mmHg 93%
    04:00 +18°C° 0 mm 1 mps 671 mmHg 92%
    05:00 +18°C° 0 mm 1 mps 672 mmHg 92%
    06:00 +16°C° 0 mm 1 mps 672 mmHg 92%
    07:00 +21°C° 0 mm 1 mps 673 mmHg 74%
    08:00 +24°C° 0 mm 1 mps 674 mmHg 56%
    09:00 +27°C° 0 mm 1 mps 676 mmHg 38%
    10:00 +30°C° 0 mm 1 mps 676 mmHg 32%
    11:00 +32°C° 0 mm 2 mps 676 mmHg 26%
    12:00 +35°C° 0 mm 2 mps 676 mmHg 19%
    13:00 +35°C° 0 mm 2 mps 675 mmHg 20%
    14:00 +35°C° 0 mm 3 mps 674 mmHg 21%
    15:00 +34°C° 0 mm 3 mps 674 mmHg 22%
    16:00 +31°C° 0 mm 3 mps 673 mmHg 30%
    17:00 +28°C° 0 mm 2 mps 673 mmHg 37%
    18:00 +26°C° 0 mm 2 mps 672 mmHg 45%
    19:00 +24°C° 0 mm 2 mps 672 mmHg 53%
    20:00 +22°C° 0 mm 1 mps 673 mmHg 62%
    21:00 +21°C° 0 mm 1 mps 673 mmHg 70%
    22:00 +20°C° 0 mm 1 mps 673 mmHg 70%
    23:00 +20°C° 0 mm 1 mps 673 mmHg 69%

    Day after tomorrow, 19 February, Tuesday

    Time Temperature Precipitation Wind Pressure Humidity
    00:00 +20°C° 0 mm 1 mps 673 mmHg 69%
    01:00 +20°C° 0 mm 1 mps 672 mmHg 68%
    02:00 +20°C° 0 mm 1 mps 672 mmHg 68%
    03:00 +19°C° 0 mm 1 mps 671 mmHg 68%
    04:00 +19°C° 0 mm 1 mps 672 mmHg 68%
    05:00 +19°C° 0 mm 1 mps 672 mmHg 69%
    06:00 +19°C° 0 mm 1 mps 672 mmHg 69%
    07:00 +22°C° 0 mm 1 mps 673 mmHg 59%
    08:00 +26°C° 0 mm 1 mps 674 mmHg 49%
    09:00 +29°C° 0 mm 1 mps 676 mmHg 39%
    10:00 +31°C° 0 mm 1 mps 676 mmHg 34%
    11:00 +32°C° 0 mm 2 mps 676 mmHg 30%
    12:00 +35°C° 0 mm 2 mps 676 mmHg 25%
    13:00 +35°C° 0 mm 2 mps 675 mmHg 26%
    14:00 +35°C° 0 mm 2 mps 674 mmHg 27%
    15:00 +34°C° 0 mm 3 mps 673 mmHg 28%
    16:00 +31°C° 0 mm 3 mps 672 mmHg 38%
    17:00 +28°C° 0 mm 2 mps 672 mmHg 47%
    18:00 +26°C° 0 mm 2 mps 671 mmHg 56%
    19:00 +24°C° 0 mm 2 mps 672 mmHg 67%
    20:00 +23°C° 0 mm 1 mps 672 mmHg 78%
    21:00 +21°C° 0 mm 1 mps 672 mmHg 88%
    22:00 +21°C° 0 mm 1 mps 672 mmHg 88%
    23:00 +20°C° 0 mm 1 mps 672 mmHg 87%

    20 February, Wednesday

    Time Temperature Precipitation Wind Pressure Humidity
    00:00 +20°C° 0 mm 1 mps 672 mmHg 86%
    01:00 +20°C° 0 mm 1 mps 671 mmHg 87%
    02:00 +20°C° 0 mm 1 mps 671 mmHg 87%
    03:00 +17°C° 0 mm 0 mps 670 mmHg 88%
    04:00 +17°C° 0 mm 0 mps 671 mmHg 89%
    05:00 +17°C° 0 mm 0 mps 671 mmHg 89%
    06:00 +19°C° 0 mm 1 mps 671 mmHg 90%
    07:00 +22°C° 0 mm 1 mps 672 mmHg 76%
    08:00 +25°C° 0 mm 1 mps 673 mmHg 63%
    09:00 +28°C° 0 mm 1 mps 674 mmHg 49%
    10:00 +29°C° 0 mm 1 mps 674 mmHg 46%
    11:00 +30°C° 0 mm 2 mps 673 mmHg 43%
    12:00 +31°C° 0 mm 2 mps 673 mmHg 41%
    13:00 +30°C° 0.1 mm 2 mps 672 mmHg 44%
    14:00 +29°C° 0.1 mm 2 mps 671 mmHg 48%
    15:00 +28°C° 0.1 mm 2 mps 671 mmHg 51%
    16:00 +27°C° 0.3 mm 2 mps 670 mmHg 59%
    17:00 +25°C° 0.3 mm 2 mps 670 mmHg 67%
    18:00 +24°C° 0.3 mm 2 mps 670 mmHg 74%
    19:00 +23°C° 0.4 mm 2 mps 671 mmHg 81%
    20:00 +22°C° 0.4 mm 1 mps 671 mmHg 88%
    21:00 +21°C° 0.4 mm 1 mps 671 mmHg 94%
    22:00 +20°C° 0.1 mm 1 mps 671 mmHg 95%
    23:00 +20°C° 0.1 mm 1 mps 671 mmHg 95%

    21 February, Thursday

    Time Temperature Precipitation Wind Pressure Humidity
    00:00 +18°C° 0.1 mm 0 mps 671 mmHg 95%
    01:00 +18°C° 0 mm 0 mps 671 mmHg 95%
    02:00 +18°C° 0 mm 0 mps 670 mmHg 94%
    03:00 +17°C° 0 mm 0 mps 670 mmHg 94%
    04:00 +17°C° 0 mm 0 mps 670 mmHg 94%
    05:00 +17°C° 0 mm 0 mps 671 mmHg 93%
    06:00 +17°C° 0 mm 0 mps 671 mmHg 93%
    07:00 +19°C° 0 mm 0 mps 672 mmHg 82%
    08:00 +23°C° 0 mm 1 mps 673 mmHg 71%
    09:00 +26°C° 0 mm 1 mps 674 mmHg 60%
    10:00 +27°C° 0 mm 1 mps 674 mmHg 54%
    11:00 +28°C° 0 mm 2 mps 674 mmHg 49%
    12:00 +30°C° 0 mm 2 mps 674 mmHg 44%
    13:00 +29°C° 0.1 mm 2 mps 673 mmHg 45%
    14:00 +29°C° 0.1 mm 2 mps 672 mmHg 46%
    15:00 +29°C° 0.1 mm 3 mps 671 mmHg 47%
    16:00 +27°C° 0.1 mm 2 mps 671 mmHg 52%
    17:00 +26°C° 0.1 mm 2 mps 671 mmHg 57%
    18:00 +25°C° 0.1 mm 2 mps 671 mmHg 62%
    19:00 +24°C° 0.1 mm 1 mps 671 mmHg 69%
    20:00 +22°C° 0.1 mm 1 mps 672 mmHg 76%
    21:00 +21°C° 0.1 mm 1 mps 672 mmHg 82%
    22:00 +21°C° 0 mm 1 mps 672 mmHg 82%
    23:00 +20°C° 0 mm 1 mps 672 mmHg 83%

    22 February, Friday

    Time Temperature Precipitation Wind Pressure Humidity
    00:00 +18°C° 0 mm 0 mps 672 mmHg 83%
    01:00 +18°C° 0 mm 0 mps 672 mmHg 82%
    02:00 +20°C° 0 mm 1 mps 671 mmHg 82%
    03:00 +20°C° 0 mm 1 mps 671 mmHg 81%
    04:00 +20°C° 0.1 mm 1 mps 671 mmHg 81%
    05:00 +18°C° 0.1 mm 0 mps 672 mmHg 81%
    06:00 +18°C° 0.1 mm 0 mps 672 mmHg 81%
    07:00 +20°C° 0 mm 0 mps 673 mmHg 74%
    08:00 +22°C° 0 mm 0 mps 674 mmHg 67%
    09:00 +25°C° 0 mm 1 mps 675 mmHg 60%
    10:00 +28°C° 0.1 mm 1 mps 675 mmHg 52%
    11:00 +30°C° 0.1 mm 1 mps 675 mmHg 44%
    12:00 +33°C° 0.1 mm 1 mps 675 mmHg 36%
    13:00 +32°C° 0.1 mm 1 mps 674 mmHg 39%
    14:00 +31°C° 0.1 mm 1 mps 673 mmHg 42%
    15:00 +30°C° 0.1 mm 2 mps 673 mmHg 45%
    16:00 +28°C° 0.1 mm 1 mps 672 mmHg 49%
    17:00 +27°C° 0.1 mm 1 mps 672 mmHg 53%
    18:00 +26°C° 0.1 mm 1 mps 672 mmHg 57%
    19:00 +24°C° 0 mm 1 mps 673 mmHg 64%
    20:00 +23°C° 0 mm 1 mps 673 mmHg 71%
    21:00 +22°C° 0 mm 1 mps 673 mmHg 79%
    22:00 +21°C° 0 mm 1 mps 673 mmHg 79%
    23:00 +21°C° 0 mm 1 mps 673 mmHg 79%
    Show more